Regional Weather Roundup
Issued by NWS

Home | Current Version | Previous Version | Text Only | Print | Product List | Glossary Off
Versions: 1 2 3 4 5 6 7 8 9 10 11 12 13 14 15 16 17 18 19 20 21 22 23 24 25 26 27 28 29 30 31 32 33 34 35 36 37 38 39 40 41 42 43 44 45 46 47 48 49 50

888
ASUS43 KIND 291109
RWRIN

WEATHER ROUNDUP FOR INDIANA
NATIONAL WEATHER SERVICE INDIANAPOLIS IN
700 AM EDT FRI JUL 29 2016

NOTE: "FAIR" INDICATES FEW OR NO CLOUDS BELOW 12,000 FEET WITH NO
SIGNIFICANT WEATHER AND/OR OBSTRUCTIONS TO VISIBILITY.

* - STATION DOES NOT REPORT WEATHER SUCH AS PRECIPITATION OR FOG.

+ - STATION NOT QUALITY CONTROLLED BY THE NATIONAL WEATHER SERVICE.
    USE DATA WITH CAUTION...ESPECIALLY DEWPOINT AND RELATIVE
    HUMIDITY OBSERVATIONS.

INZ001>003-010>013-019-020-291200-
NORTHWEST INDIANA

CITY           SKY/WX    TMP DP  RH WIND       PRES   REMARKS
GARY /AIRPORT/ PTCLDY    66  66 100 CALM      29.91S
KNOX *+        CLOUDY    63  61  94 N3        29.92S VSB<1/4
LA PORTE +     CLEAR    N/A N/A N/A CALM      29.93R HAZE
MICHIGAN CITY+ PTCLDY    63  63 100 CALM      29.93R FOG
MONTICELLO +   CLOUDY    67  63  87 CALM      29.91R
RENSSELAER +   CLEAR     64  64 100 CALM      29.92R FOG
VALPARAISO     CLEAR     65  64  97 CALM      29.92S

$$

LMZ046-743>745-291200-
SOUTHERN LAKE MICHIGAN

STATION/POSITION TIME  TEMP    WIND        PRES    WAVE
                       AIR SEA DIR/SP/G            HT
                 (UTC) (F)     (DEG/KT/KT) (MB)    (FT)
BURNS HARBOR     1003   72      70/  3/  8 1013.2S
MICHIGAN CITY    1000   69     100/  4/  5   N/A
5NW MICH CITY    1000   74 77  100/  6/  8   N/A     2

$$

INZ004-005-014>016-021>024-291200-
NORTH CENTRAL INDIANA

CITY           SKY/WX    TMP DP  RH WIND       PRES   REMARKS
ELKHART        PTCLDY    68  66  94 CALM      29.93  FOG
GOSHEN         CLEAR     69  64  84 SE7       29.92S
LOGANSPORT +   PTCLDY    63  63 100 CALM      29.93R FOG
PERU/GRISSOM   CLEAR     65  65 100 CALM      29.91R
ROCHESTER +      N/A     68  68 100 CALM      29.93R FOG
SOUTH BEND     CLEAR     67  66  97 E3        29.93R
WARSAW +       FOG       64  64 100 CALM      29.93R VSB 1/2

$$

INZ006>009-017-018-025>027-291200-
NORTHEAST INDIANA

CITY           SKY/WX    TMP DP  RH WIND       PRES   REMARKS
ANGOLA *+      MOCLDY    66  57  72 E3        29.94R
AUBURN +       MOCLDY    68  63  83 E5        29.95R
FORT WAYNE     PTCLDY    68  66  93 E5        29.93R FOG
HUNTINGTON +     N/A     66  64  96 CALM      29.92S FOG

$$

INZ028-029-035-036-043>045-051>053-291200-
WEST CENTRAL INDIANA

CITY           SKY/WX    TMP DP  RH WIND       PRES   REMARKS
CRAWFORDSVL +  FOG       66  66 100 CALM      29.92R VSB<1/4
GREENCASTLE +  FOG       68  68 100 CALM      29.93R VSB<1/4
LAFAYETTE      FOG       68  68 100 CALM      29.91R VSB<1/4
TERRE HAUTE    FOG       68  66  93 NE3       29.92R VSB 1/4

$$

INZ030>032-037>040-046>048-054>057-064-065-291200-
CENTRAL INDIANA

CITY           SKY/WX    TMP DP  RH WIND       PRES   REMARKS
COLUMBUS       FOG       68  68 100 S3        29.94  VSB 1/2
FISHERS *+     MOCLDY    66  66 100 CALM      29.93R
INDIANAPOLIS   PTCLDY    70  67  90 SE3       29.93R
-EAGLE CREEK   CLEAR     71  68  90 CALM      29.92R
KOKOMO *+      CLOUDY    63  57  82 CALM      29.92R VSB 1
MARION +       PTCLDY    62  62 100 CALM      29.93R FOG
MT COMFORT *+  CLEAR     64  64 100 CALM      29.93R
SHELBYVILLE    PTCLDY    69  66  90 CALM      29.93R FOG
ZIONSVILLE +   FOG       64  63  99 CALM      29.94R VSB<1/4

$$

INZ033-034-041-042-049-050-058-059-291200-
EAST CENTRAL INDIANA

CITY           SKY/WX    TMP DP  RH WIND       PRES   REMARKS
MUNCIE         CLEAR     69  65  86 CALM      29.92R

$$

INZ060-061-067>069-081>083-085>088-291200-
SOUTHWEST INDIANA

CITY           SKY/WX    TMP DP  RH WIND       PRES   REMARKS
EVANSVILLE     MOCLDY    70  69  97 CALM      29.93R FOG
HUNTINGBURG *+ PTCLDY    70  64  83 CALM      29.93R
WASHINGTON +   CLEAR     68  68 100 MISG      29.92R FOG

$$

INZ062-063-066-070>080-084-089>092-291200-
SOUTH CENTRAL AND SOUTHEAST INDIANA

CITY           SKY/WX    TMP DP  RH WIND       PRES   REMARKS
BLOOMINGTON    MOCLDY    68  66  93 CALM      29.93R
MADISON *+     CLEAR     68  66  94 CALM      29.96R
NORTH VERNON + FOG      N/A N/A N/A CALM      29.95R VSB 1/4
SEYMOUR +      FOG       70  70 100 CALM      29.93R VSB<1/4

$$





USA.gov is the U.S. government's official web portal to all federal, state and local government web resources and services.